Location: London
(51.5074°N, 0.1278°W)
Time: 07:48:33
(UTC+00:00)

TIGRISAT - Pass Details

Date: 03 October 2020
Orbit: 606 x 688 km, 97.7° (Epoch: 30 October)

Event Time Altitude Azimuth Distance (km) Brightness Sun altitude
Rises 20:43:34 0° 18° (NNE) 2,985 ? -20.9°
Reaches altitude 10° 20:45:51 10° 24° (NNE) 2,083 ? -21.2°
Enters shadow 20:48:37 33° 48° (NE) 1,131 ? -21.6°
